Location: Oak Glen
(34.0495°N, 116.9470°E)
Time: 17:42:33
(UTC-08:00)

N. Korean satellite - Pass Details

Date: 10 October 2017
Orbit: 461 x 513 km, 97.2° (Epoch: 11 December)

Event Time Altitude Azimuth Distance (km) Brightness Sun altitude
Rises 03:47:33 0° 186° (S) 2,570 10.3 -13.8°
Reaches altitude 10° 03:49:45 10° 196° (SSW) 1,683 9.5 -14.3°
Maximum altitude 03:53:04 34° 262° (W) 827 8.4 -15.0°
Drops below altitude 10° 03:56:22 10° 328° (NNW) 1,666 9.7 -15.6°
Sets 03:58:33 0° 338° (NNW) 2,540 10.5 -16.1°
